www.pogodaiklimat.ru

Погода и климат >> Архив погоды >> Россия >> Коми >> Усть-Щугор


ПОГОДА в Усть-Щугоре

  • Прогноз погоды в Усть-Щугоре
  • Монитор погоды в Усть-Щугоре

АРХИВ ПОГОДЫ в Усть-Щугоре

Время (UTC), дата Ветер
(напр.,м/с)
 
Видим.   Явления Облачность Т
(С)
Тd
(С)
f
(%)
Тe
(С)
Тes
(С)
Комфортность P
(гПа)
Po
(гПа)
Тmin
(С)
Tmax
(С)
R
(мм)
R24
(мм)
S
(см)
06 14.05 ЮВ 4 20 км 10/0
[Ac inh]
+4.7 -5.4 48 +1 +3 1030.2 1021.0
12 14.05 ЮВ 4 20 км 10/0
[Cc]
+8.3 -6.1 35 +6 +9 1029.6 1020.6
15 14.05 В 4 20 км 10/0
[Ac As Cc]
+7.4 -6.3 37 +5 +5 1029.1 1020.0 +9.0
03 15.05 Ю 4 20 км ясно +6.6 -5.8 41 +4 +6 1027.9 1018.8 -1.9
06 15.05 Ю 5 20 км 1/0
[Cc]
+10.5 -5.9 31 +8 +13 1026.1 1017.2
09 15.05 ЮВ 5 20 км 3/0
[Ci fib]
+13.1 -5.6 27 +12 +17 1024.2 1015.2
12 15.05 Ю 6
{11}
20 км 4/0
[Ac trans Ci]
+14.0 -6.3 24 +12 +14 1022.1 1013.2
15 15.05 ЮВ 4
{10}
20 км 9/0
[Ac As]
+12.6 -5.2 28 +11 +12 1020.6 1011.8 +14.0
03 16.05 С 3 20 км 10/10 240 м
[Cb cap]
+5.1 +4.0 93 +2 +2 1017.7 1008.7 +4.6 0.3
06 16.05 С 3 4000 м слаб. ливневой дождь 10/10 600 м
[Cb cap]
+2.7 +1.8 94 -2 -2 1018.4 1009.2 +2.7
09 16.05 С 4 4000 м слаб. ливневой дождь 10/10 330 м
[Cb cap]
+2.5 +1.5 93 -3 -3 1017.7 1008.6
12 16.05 С 3 10 км слаб. ливневой дождь 10/10 360 м
[Cb cap]
+3.0 +1.5 90 -1 -1 1017.7 1008.6
15 16.05 С 3 20 км {ливн. осадки} 9/6 600 м
[Cb cap Ac As Cc]
+4.2 +1.1 80 +1 +1 1016.7 1007.6 +5.1 2
03 17.05 С 3 20 км 9/4 600 м
[Cb cap Ac As]
+3.3 -0.6 76 -0 0 1010.8 1001.7 -3.7
06 17.05 СЗ 5 20 км 6/5 600 м
[Cb cap Cc]
+4.2 -2.0 64 -0 +2 1009.1 1000.0
09 17.05 СЗ 3 20 км 9/8 840 м
[Cb cap Ac cuf]
+7.4 -3.9 45 +5 +6 1007.5 998.6
12 17.05 СЗ 2 10 км слаб. ливневой дождь 9/8 450 м
[Cb cap Ci fib]
+6.4 -1.3 58 +5 +6 1006.7 997.8
15 17.05 З 2 20 км {ливн. осадки} 9/8 750 м
[Cb cap Ac cuf]
+3.1 +1.2 87 0 0 1006.0 996.9 +8.7 0.0
03 18.05 СЗ 5 20 км 10/10 500 м
[Cb cap]
+2.1 -0.8 81 -3 -3 1001.0 992.0 +0.2
06 18.05 СЗ 4 20 км 10/10 750 м
[Cb cap]
+2.5 -0.7 79 -2 -2 999.9 990.9
09 18.05 СЗ 4 4000 м слаб. ливневой снег 10/10 600 м
[Cb cap]
+2.9 +0.7 85 -2 -2 999.6 990.6
12 18.05 СЗ 3 20 км в посл. час ливневой дождь 10/8 720 м
[Cb cap Ac As]
+3.0 +0.3 82 -1 -1 999.8 990.8
15 18.05 СЗ 2 20 км 10/8 500 м
[Cb cap Ac As]
+2.5 +0.6 87 -1 -1 1000.3 991.3 +3.4 0.8
03 19.05 СВ 2 10 км слаб. ливневой дождь 10/10 300 м
[Cb cap]
+2.3 +1.2 92 -1 -1 1002.9 993.9 0.0 0.5
06 19.05 СВ 4 20 км {ливн. осадки} 10/8 720 м
[Cb cap Ac As]
+5.4 +1.8 78 +2 +2 1004.5 995.5
09 19.05 СВ 4 20 км 9/8 800 м
[Cb cap Ci fib]
+9.6 -1.0 48 +7 +9 1005.7 996.9
12 19.05 СВ 7-12
{13}
20 км 8/4 1000 м
[Cu hum Ac lent Cc]
+10.7 -6.4 29 +8 +9 1006.7 997.9
15 19.05 С 4
{12}
20 км 8/3 1000 м
[Cb cap Cs]
+9.1 -6.6 32 +7 +7 1008.0 999.1 +11.2 0.0
03 20.05 С 5
{11}
20 км 8/1 600 м
[Cu hum Ac As Cc]
0.0 -4.5 72 -6 -5 1010.3 1001.1 -0.1
06 20.05 С 7-12
{13}
20 км 10/1 600 м
[Cu hum Ac As Cc]
+2.9 -5.2 55 -3 -2 1010.9 1001.8
09 20.05 С 6-12
{12}
20 км 10/0
[Ac trans Cc]
+3.6 -4.8 54 -1 +1 1012.2 1003.1
12 20.05 С 7-12
{13}
20 км 9/1 1000 м
[Cu hum Ac cast Cc]
+5.3 -5.3 46 +1 +2 1013.0 1003.9
15 20.05 С 6
{12}
20 км 9/3 1000 м
[Cu hum Ac lent Cc]
+4.5 -5.6 48 -0 0 1013.3 1004.2 +5.7

 

Местоположение метеостанции Усть-Щугор (Коми, Россия): широта 64.27 долгота 57.62 высота над уровнем моря 75 м.

В архиве по умолчанию представлена погода в Усть-Щугоре за последнюю неделю. Архивные данные за месяц целиком и за предыдущие месяцы, начиная с января 2011 года, Вы можете получить, выбрав интересующий диапазон дат из раскрывающегося списка и нажав кнопку "Ввод!".


*Определитесь, кто Вы:
робот инопланетянин человек

Внимание! Время в таблицах - всемирное. Для получения местного времени необходимо прибавить поправку, которая равна 3 ч.

Смотрите также архив погоды в соседних городах и на ближайших метеорологических станциях:

Погода в Вуктыле (Коми, Россия) (51 км)
Погода в Печоре (Коми, Россия) (98 км)
Погода в Ираеле (Коми, Россия) (110 км)
Погода в Саранпауле (Ханты-Мансийский АО, Россия) (157 км)
Погода в Приполярном (Ханты-Мансийский АО, Россия) (160 км)
Погода в Троицко-Печорском (Коми, Россия) (188 км)
Погода в Усть-Усе (Коми, Россия) (192 км)
Погода в Ижме (Коми, Россия) (194 км)
Погода в Кедва-Воме (Коми, Россия) (196 км)
Погода в Усинске (Коми, Россия) (196 км)

Пояснения к столбцам:

Ветер - указаны скорость ветра в м/с - средняя за 10 мин, порывы в срок и между сроками (в фигурных скобках) и направление, откуда дует ветер: С - северный, СВ - северо-восточный, В - восточный, ЮВ - юго-восточный, Ю - южный, ЮЗ - юго-западный, З - западный, СЗ - северо-западный.
Видимость - горизонтальная дальность видимости в метрах или километрах. При видимости от 1 до 10 км при отсутствии осадков обычно наблюдается дымка, при ухудшении видимости до 1 км и менее - туман. В сухую погоду видимость может ухудшаться дымом, пылью или мглою.
Явления - указаны атмосферные явления, наблюдавшиеся в срок или в последний час перед сроком; фигурными скобками обозначены явления, наблюдавшиеся между сроками (за 1-3 часа до срока); квадратными скобками обозначены град или гололедные отложения с указанием их диаметра в мм.
Облачность - указаны через наклонную черту общая и нижняя облачность в баллах и высота нижней границы облаков в метрах; квадратными скобками обозначены формы облаков: Ci - перистые, Cs - перисто-слоистые, Cc - перисто-кучевые, Ac - высококучевые, As - высокослоистые, Sc - слоисто-кучевые, Ns - слоисто-дождевые, Cu - кучевые, Cb - кучево-дождевые. Подробнее классификацию облаков см. в Атласе облаков (PDF).
T - Температура воздуха - температура, измеренная на высоте 2 м над землей.
Td - Температура точки росы - температура, при понижении до которой содержащийся в воздухе водяной пар достигнет насыщения.
f - Относительная влажность воздуха - влажноcть воздуха, измеренная на высоте 2 м над землей.
Te - Эффективная температура - температура, которую ощущает одетый по сезону человек в тени. Характеристика душности погоды. При расчете учитывается влияние влажности воздуха и скорости ветра на теплоощущения человека.
Tes - Эффективная температура на солнце - температура, которую ощущает человек, с поправкой на солнечный нагрев. Характеристика знойности погоды. Зависит от высоты солнца над горизонтом, облачности и скорости ветра. Ночью, в пасмурную погоду, а также при ветре 12 м/с и более поправка равна нулю.
P - Атмосферное давление - приведенное к уровню моря атмосферное давление.
Po - Атмосферное давление - измеренное на уровне метеостанции атмосферное давление.
Tmin - Минимальная температура - минимум температуры воздуха на высоте 2 м над землей.
Tmax - Максимальная температура - максимум температуры воздуха на высоте 2 м над землей.
R - Количество осадков - Количество выпавших осадков за период времени, мм. При наведении курсора мыши на число - период времени, за который выпало указанное количество осадков.
R24 - Количество осадков - Количество выпавших осадков за 24 часа, мм.
S - Снежный покров - Высота снежного покрова, см. При наведении курсора мыши на число - состояние снежного покрова и степень покрытия местности в баллах.